When you browse on this site, cookies collect data to enhance your experience and personalize the content and advertising you see.
Visit our Privacy Policy to learn more. By continuing to use the site, you agree to this use of cookies and data.
  • In United Kingdom
  • List of Countries
  • For 7 days
  • Water Temperature
  • Satellite Maps
  • Weather Map
  • Weather Widgets
  • user-avatar
    Login

    Hourly Weather Leticia

    Today, 21 November, Wednesday

    Time Temperature Precipitation Wind Pressure Humidity
    00:00 +24°C° 0.2 mm 0 mps 751 mmHg 94%
    01:00 +24°C° 0.2 mm 0 mps 751 mmHg 95%
    02:00 +24°C° 0.6 mm 0 mps 751 mmHg 96%
    03:00 +23°C° 0.6 mm 0 mps 751 mmHg 97%
    04:00 +23°C° 0.6 mm 0 mps 751 mmHg 97%
    05:00 +23°C° 0.3 mm 0 mps 751 mmHg 97%
    06:00 +24°C° 0.3 mm 0 mps 752 mmHg 97%
    07:00 +24°C° 0.3 mm 0 mps 752 mmHg 96%
    08:00 +25°C° 0.9 mm 0 mps 752 mmHg 95%
    09:00 +27°C° 0.9 mm 1 mps 753 mmHg 94%
    10:00 +28°C° 0.9 mm 1 mps 753 mmHg 93%
    11:00 +29°C° 0.5 mm 1 mps 752 mmHg 87%
    12:00 +30°C° 0.5 mm 1 mps 751 mmHg 80%
    13:00 +31°C° 0.5 mm 1 mps 750 mmHg 73%
    14:00 +31°C° 0.1 mm 1 mps 750 mmHg 71%
    15:00 +32°C° 0.1 mm 1 mps 749 mmHg 69%
    16:00 +32°C° 0.1 mm 1 mps 748 mmHg 67%
    17:00 +30°C° 0 mm 1 mps 749 mmHg 74%
    18:00 +26°C° 0 mm 0 mps 749 mmHg 81%
    19:00 +25°C° 0 mm 0 mps 749 mmHg 89%
    20:00 +24°C° 0 mm 0 mps 750 mmHg 90%
    21:00 +24°C° 0 mm 0 mps 750 mmHg 91%
    22:00 +24°C° 0 mm 0 mps 751 mmHg 93%
    23:00 +24°C° 0.2 mm 0 mps 751 mmHg 92%

    Tomorrow, 22 November, Thursday

    Time Temperature Precipitation Wind Pressure Humidity
    00:00 +24°C° 0.2 mm 0 mps 750 mmHg 92%
    01:00 +23°C° 0.2 mm 0 mps 750 mmHg 92%
    02:00 +23°C° 0.2 mm 0 mps 750 mmHg 93%
    03:00 +23°C° 0.2 mm 0 mps 750 mmHg 93%
    04:00 +23°C° 0.2 mm 0 mps 750 mmHg 94%
    05:00 +24°C° 0 mm 0 mps 750 mmHg 90%
    06:00 +25°C° 0 mm 0 mps 751 mmHg 87%
    07:00 +25°C° 0 mm 0 mps 751 mmHg 84%
    08:00 +28°C° 0.1 mm 0 mps 751 mmHg 76%
    09:00 +32°C° 0.1 mm 1 mps 752 mmHg 68%
    10:00 +34°C° 0.1 mm 1 mps 752 mmHg 60%
    11:00 +34°C° 1.2 mm 1 mps 751 mmHg 65%
    12:00 +33°C° 1.2 mm 1 mps 750 mmHg 70%
    13:00 +33°C° 1.2 mm 1 mps 749 mmHg 75%
    14:00 +33°C° 1 mm 1 mps 748 mmHg 74%
    15:00 +31°C° 1 mm 0 mps 748 mmHg 73%
    16:00 +30°C° 1 mm 0 mps 747 mmHg 72%
    17:00 +29°C° 0.1 mm 0 mps 748 mmHg 78%
    18:00 +27°C° 0.1 mm 0 mps 748 mmHg 83%
    19:00 +26°C° 0.1 mm 0 mps 749 mmHg 88%
    20:00 +25°C° 0.2 mm 0 mps 749 mmHg 89%
    21:00 +25°C° 0.2 mm 0 mps 750 mmHg 91%
    22:00 +24°C° 0.2 mm 0 mps 750 mmHg 92%
    23:00 +24°C° 1 mm 0 mps 750 mmHg 93%

    Day after tomorrow, 23 November, Friday

    Time Temperature Precipitation Wind Pressure Humidity
    00:00 +26°C° 1 mm 1 mps 749 mmHg 94%
    01:00 +26°C° 1 mm 1 mps 749 mmHg 95%
    02:00 +25°C° 0.1 mm 1 mps 749 mmHg 96%
    03:00 +25°C° 0.1 mm 1 mps 749 mmHg 97%
    04:00 +25°C° 0.1 mm 1 mps 749 mmHg 97%
    05:00 +26°C° 0 mm 1 mps 749 mmHg 95%
    06:00 +26°C° 0 mm 1 mps 750 mmHg 94%
    07:00 +27°C° 0 mm 1 mps 750 mmHg 92%
    08:00 +28°C° 0 mm 1 mps 750 mmHg 82%
    09:00 +30°C° 0 mm 1 mps 751 mmHg 73%
    10:00 +32°C° 0 mm 2 mps 751 mmHg 63%
    11:00 +34°C° 0 mm 2 mps 750 mmHg 61%
    12:00 +34°C° 0 mm 2 mps 749 mmHg 58%
    13:00 +35°C° 0 mm 2 mps 748 mmHg 56%
    14:00 +35°C° 0 mm 2 mps 748 mmHg 58%
    15:00 +33°C° 0 mm 1 mps 747 mmHg 60%
    16:00 +33°C° 0 mm 1 mps 747 mmHg 62%
    17:00 +31°C° 0 mm 1 mps 747 mmHg 70%
    18:00 +29°C° 0 mm 1 mps 748 mmHg 78%
    19:00 +28°C° 0 mm 1 mps 748 mmHg 86%
    20:00 +27°C° 0 mm 1 mps 749 mmHg 88%
    21:00 +27°C° 0 mm 1 mps 749 mmHg 90%
    22:00 +25°C° 0 mm 0 mps 750 mmHg 91%
    23:00 +26°C° 0 mm 1 mps 749 mmHg 92%

    24 November, Saturday

    Time Temperature Precipitation Wind Pressure Humidity
    00:00 +26°C° 0 mm 1 mps 749 mmHg 93%
    01:00 +26°C° 0 mm 1 mps 748 mmHg 94%
    02:00 +26°C° 0 mm 1 mps 748 mmHg 94%
    03:00 +26°C° 0 mm 1 mps 748 mmHg 94%
    04:00 +25°C° 0 mm 1 mps 748 mmHg 94%
    05:00 +26°C° 0 mm 1 mps 749 mmHg 91%
    06:00 +27°C° 0 mm 1 mps 749 mmHg 88%
    07:00 +28°C° 0 mm 1 mps 750 mmHg 84%
    08:00 +30°C° 0 mm 1 mps 750 mmHg 76%
    09:00 +32°C° 0 mm 1 mps 750 mmHg 67%
    10:00 +35°C° 0 mm 2 mps 750 mmHg 58%
    11:00 +34°C° 1 mm 2 mps 749 mmHg 64%
    12:00 +33°C° 1 mm 1 mps 748 mmHg 71%
    13:00 +33°C° 1 mm 1 mps 747 mmHg 77%
    14:00 +32°C° 1.5 mm 1 mps 747 mmHg 80%
    15:00 +31°C° 1.5 mm 1 mps 747 mmHg 83%
    16:00 +31°C° 1.5 mm 1 mps 746 mmHg 86%
    17:00 +30°C° 0.2 mm 1 mps 747 mmHg 89%
    18:00 +28°C° 0.2 mm 1 mps 748 mmHg 92%
    19:00 +27°C° 0.2 mm 1 mps 749 mmHg 95%
    20:00 +27°C° 0.1 mm 1 mps 749 mmHg 96%
    21:00 +26°C° 0.1 mm 1 mps 750 mmHg 96%
    22:00 +26°C° 0.1 mm 1 mps 750 mmHg 97%
    23:00 +26°C° 0.1 mm 1 mps 750 mmHg 97%

    25 November, Sunday

    Time Temperature Precipitation Wind Pressure Humidity
    00:00 +24°C° 0.1 mm 0 mps 749 mmHg 97%
    01:00 +23°C° 0.1 mm 0 mps 749 mmHg 98%
    02:00 +23°C° 0.1 mm 0 mps 749 mmHg 98%
    03:00 +23°C° 0.1 mm 0 mps 749 mmHg 98%
    04:00 +25°C° 0.1 mm 1 mps 749 mmHg 98%
    05:00 +26°C° 0 mm 1 mps 749 mmHg 96%
    06:00 +26°C° 0 mm 1 mps 750 mmHg 95%
    07:00 +27°C° 0 mm 1 mps 750 mmHg 93%
    08:00 +29°C° 0 mm 1 mps 750 mmHg 83%
    09:00 +31°C° 0 mm 1 mps 751 mmHg 73%
    10:00 +34°C° 0 mm 2 mps 751 mmHg 63%
    11:00 +34°C° 0.3 mm 2 mps 750 mmHg 63%
    12:00 +35°C° 0.3 mm 2 mps 749 mmHg 64%
    13:00 +35°C° 0.3 mm 2 mps 748 mmHg 64%
    14:00 +33°C° 0.9 mm 1 mps 747 mmHg 68%
    15:00 +32°C° 0.9 mm 1 mps 747 mmHg 72%
    16:00 +32°C° 0.9 mm 1 mps 747 mmHg 76%
    17:00 +30°C° 1.3 mm 1 mps 747 mmHg 83%
    18:00 +26°C° 1.3 mm 0 mps 748 mmHg 89%
    19:00 +24°C° 1.3 mm 0 mps 749 mmHg 96%
    20:00 +24°C° 0.9 mm 0 mps 749 mmHg 96%
    21:00 +24°C° 0.9 mm 0 mps 750 mmHg 96%
    22:00 +24°C° 0.9 mm 0 mps 750 mmHg 96%
    23:00 +24°C° 0.3 mm 0 mps 750 mmHg 97%

    26 November, Monday

    Time Temperature Precipitation Wind Pressure Humidity
    00:00 +24°C° 0.3 mm 0 mps 749 mmHg 97%
    01:00 +23°C° 0.3 mm 0 mps 749 mmHg 98%
    02:00 +23°C° 0.4 mm 0 mps 749 mmHg 98%
    03:00 +23°C° 0.4 mm 0 mps 749 mmHg 98%
    04:00 +23°C° 0.4 mm 0 mps 749 mmHg 99%
    05:00 +24°C° 0.2 mm 0 mps 750 mmHg 98%
    06:00 +24°C° 0.2 mm 0 mps 750 mmHg 97%
    07:00 +25°C° 0.2 mm 0 mps 751 mmHg 97%
    08:00 +26°C° 1.4 mm 0 mps 751 mmHg 92%
    09:00 +27°C° 1.4 mm 0 mps 751 mmHg 87%
    10:00 +29°C° 1.4 mm 0 mps 750 mmHg 82%
    11:00 +30°C° 0.5 mm 0 mps 750 mmHg 73%
    12:00 +32°C° 0.5 mm 0 mps 749 mmHg 64%
    13:00 +35°C° 0.5 mm 1 mps 748 mmHg 54%
    14:00 +34°C° 1 mm 1 mps 747 mmHg 61%
    15:00 +33°C° 1 mm 1 mps 747 mmHg 67%
    16:00 +30°C° 1 mm 0 mps 747 mmHg 74%
    17:00 +30°C° 1.9 mm 1 mps 747 mmHg 81%
    18:00 +28°C° 1.9 mm 1 mps 748 mmHg 89%
    19:00 +26°C° 1.9 mm 1 mps 749 mmHg 96%
    20:00 +26°C° 0.8 mm 1 mps 749 mmHg 96%
    21:00 +26°C° 0.8 mm 1 mps 749 mmHg 97%
    22:00 +24°C° 0.8 mm 0 mps 750 mmHg 97%
    23:00 +24°C° 0.1 mm 0 mps 749 mmHg 97%
    Show more